Location: Luxembourg
(49.6117°N, 6.1300°E)
Time: 18:18:55
(UTC+01:00)

Tiangong - Pass Details

Date: 12 December 2021
Orbit: 381 x 387 km, 41.5° (Epoch: 27 January)

Event Time Altitude Azimuth Distance (km) Brightness Sun altitude
Rises 18:56:19 0° 241° (WSW) 2,287 6.3 -21.7°
Reaches altitude 10° 18:58:47 10° 223° (SW) 1,429 4.6 -22.0°
Enters shadow 19:00:40 18° 188° (S) 1,034 3.4 -22.3°
